Date String (YYYY-MM-DD hh:mm:ss) UTC,Instrument flags,Ambient pressure (hPa),Sample flow (lpm),Bypass flow (lpm),Sample temperature (°C),Ambient temperature (°C),ASC tube jacket temperature (°C),LED temperature (°C),Box temperature (°C),Sample RH (%),Span deviation,Mass concentration (μg/m³),Mass concentration (μg/m³),Mass concentration (μg/m³)
DateTimeUTC,F1_M11,P_M11,Q1_M11,Q2_M11,T1_M11,T2_M11,T3_M11,T4_M11,T5_M11,U1_M11,ZSPAN_M11,X0_M11,X2_M11,X1_M11
2022-10-31 20:00:00,,0822.2,4.98,0.00,30.6,26.5,00.0,39.2,32.1,06.7,0000.0,0008.06,0003.70,0003.19
2022-10-31 20:01:00,,0822.2,5.02,0.00,30.5,26.8,00.0,39.2,31.9,06.9,0000.0,0008.26,0003.69,0003.18
2022-10-31 20:02:00,,0822.2,4.99,0.00,30.3,27.2,00.0,39.1,31.9,06.9,0000.0,0008.87,0003.69,0003.16
2022-10-31 20:03:00,,0822.2,5.01,0.00,30.3,27.6,00.0,39.1,31.9,07.0,0000.0,0009.07,0003.69,0003.16
2022-10-31 20:04:00,,0822.2,4.99,0.00,30.3,27.9,00.0,39.1,31.9,07.1,0000.0,0009.65,0003.70,0003.16
2022-10-31 20:05:00,,0822.2,5.00,0.00,30.2,28.1,00.0,39.1,31.9,07.1,0000.0,0010.02,0003.69,0003.16
2022-10-31 20:06:00,,0822.2,5.02,0.00,30.2,28.3,00.0,39.1,31.9,07.2,0000.0,0010.74,0003.72,0003.16
2022-10-31 20:07:00,,0822.2,5.00,0.00,30.2,28.5,00.0,39.1,31.9,07.2,0000.0,0011.20,0003.70,0003.15
2022-10-31 20:08:00,,0822.2,4.98,0.00,30.2,28.6,00.0,39.1,31.9,06.9,0000.0,0010.69,0003.71,0003.15
2022-10-31 20:09:00,,0822.2,5.03,0.00,30.2,28.7,00.0,39.1,32.0,06.9,0000.0,0010.66,0003.70,0003.14
2022-10-31 20:10:00,,0822.1,4.98,0.00,30.2,28.8,00.0,39.1,32.0,07.0,0000.0,0010.76,0003.71,0003.14
2022-10-31 20:11:00,,0822.1,5.00,0.00,30.2,28.8,00.0,39.1,32.0,06.9,0000.0,0010.81,0003.75,0003.14
2022-10-31 20:12:00,,0822.1,5.01,0.00,30.2,28.9,00.0,39.1,32.0,07.0,0000.0,0010.47,0003.78,0003.15
2022-10-31 20:13:00,,0822.1,5.01,0.00,30.2,29.0,00.0,39.1,32.0,07.0,0000.0,0009.89,0003.79,0003.15
2022-10-31 20:14:00,,0822.1,5.00,0.00,30.3,29.0,00.0,39.1,32.1,07.0,0000.0,0010.23,0003.84,0003.15
2022-10-31 20:15:00,,0822.1,5.00,0.00,30.3,29.0,00.0,39.1,32.1,06.9,0000.0,0009.75,0003.85,0003.15
2022-10-31 20:16:00,,0822.1,5.00,0.00,30.3,29.1,00.0,39.1,32.1,06.8,0000.0,0009.28,0003.83,0003.14
2022-10-31 20:17:00,,0822.1,4.97,0.00,30.3,29.1,00.0,39.1,32.1,06.8,0000.0,0008.71,0003.81,0003.13
2022-10-31 20:18:00,,0822.1,5.01,0.00,30.4,29.2,00.0,39.1,32.2,06.8,0000.0,0008.52,0003.84,0003.13
2022-10-31 20:19:00,,0822.1,5.01,0.00,30.4,29.2,00.0,39.1,32.2,06.8,0000.0,0008.55,0003.86,0003.14
2022-10-31 20:20:00,,0822.1,5.00,0.00,30.4,29.2,00.0,39.2,32.2,06.7,0000.0,0008.46,0003.88,0003.14
2022-10-31 20:21:00,,0822.1,4.99,0.00,30.4,29.2,00.0,39.2,32.2,06.9,0000.0,0008.55,0003.89,0003.14
2022-10-31 20:22:00,,0822.1,5.00,0.00,30.4,29.3,00.0,39.2,32.2,07.0,0000.0,0008.99,0003.85,0003.14
2022-10-31 20:23:00,,0822.1,5.00,0.00,30.5,29.3,00.0,39.2,32.3,06.9,0000.0,0008.95,0003.82,0003.14
2022-10-31 20:24:00,,0822.1,4.99,0.00,30.5,29.3,00.0,39.2,32.3,06.9,0000.0,0009.07,0003.80,0003.14
2022-10-31 20:25:00,,0822.1,5.01,0.00,30.5,29.4,00.0,39.2,32.4,06.9,0000.0,0008.72,0003.75,0003.13
2022-10-31 20:26:00,,0822.1,5.01,0.00,30.5,29.4,00.0,39.3,32.4,06.8,0000.0,0008.48,0003.73,0003.13
2022-10-31 20:27:00,,0822.1,4.99,0.00,30.5,28.4,00.0,39.2,32.3,06.8,0000.0,0008.50,0003.72,0003.13
2022-10-31 20:28:00,,0822.1,5.00,0.00,30.5,27.3,00.0,39.2,32.1,06.8,0000.0,0008.44,0003.71,0003.13
2022-10-31 20:29:00,,0822.1,4.98,0.00,30.4,27.2,00.0,39.1,32.1,06.8,0000.0,0009.04,0003.69,0003.13
2022-10-31 20:30:00,,0822.0,5.02,0.00,30.3,27.4,00.0,39.1,31.9,06.9,0000.0,0009.52,0003.67,0003.12
2022-10-31 20:31:00,,0821.9,4.98,0.00,30.3,27.7,00.0,39.1,31.9,06.9,0000.0,0009.42,0003.63,0003.11
2022-10-31 20:32:00,,0822.0,5.02,0.00,30.3,28.0,00.0,39.1,31.9,06.9,0000.0,0009.45,0003.62,0003.10
2022-10-31 20:33:00,,0822.1,4.99,0.00,30.2,28.2,00.0,39.1,32.0,06.9,0000.0,0008.82,0003.63,0003.11
2022-10-31 20:34:00,,0821.9,5.00,0.00,30.2,28.4,00.0,39.1,32.0,06.9,0000.0,0008.81,0003.63,0003.12
2022-10-31 20:35:00,,0822.1,4.98,0.00,30.2,28.6,00.0,39.1,32.0,06.9,0000.0,0008.82,0003.65,0003.11
2022-10-31 20:36:00,,0822.1,5.01,0.00,30.2,28.7,00.0,39.1,32.0,06.8,0000.0,0009.35,0003.67,0003.10
2022-10-31 20:37:00,,0821.9,5.00,0.00,30.3,28.8,00.0,39.1,32.0,06.8,0000.0,0009.70,0003.66,0003.09
2022-10-31 20:38:00,,0821.9,4.98,0.00,30.3,28.9,00.0,39.1,32.1,06.8,0000.0,0010.32,0003.65,0003.07
2022-10-31 20:39:00,,0821.8,5.03,0.00,30.3,29.0,00.0,39.1,32.1,06.8,0000.0,0010.36,0003.65,0003.05
2022-10-31 20:40:00,,0821.8,4.97,0.00,30.3,29.1,00.0,39.1,32.1,06.8,0000.0,0010.88,0003.66,0003.04
2022-10-31 20:41:00,,0821.8,5.00,0.00,30.3,29.1,00.0,39.1,32.2,06.8,0000.0,0011.15,0003.67,0003.05
2022-10-31 20:42:00,,0821.8,5.01,0.00,30.4,29.2,00.0,39.1,32.2,06.8,0000.0,0011.14,0003.68,0003.05
2022-10-31 20:43:00,,0821.8,5.01,0.00,30.4,29.2,00.0,39.2,32.2,06.8,0000.0,0011.17,0003.66,0003.07
2022-10-31 20:44:00,,0821.8,4.98,0.00,30.4,29.3,00.0,39.2,32.3,06.8,0000.0,0011.60,0003.67,0003.07
2022-10-31 20:45:00,,0821.9,5.01,0.00,30.4,29.3,00.0,39.2,32.3,06.8,0000.0,0011.87,0003.68,0003.05
2022-10-31 20:46:00,,0821.8,5.00,0.00,30.4,29.3,00.0,39.2,32.3,06.7,0000.0,0011.95,0003.68,0003.04
2022-10-31 20:47:00,,0821.8,5.00,0.00,30.5,29.3,00.0,39.2,32.3,06.6,0000.0,0011.61,0003.71,0003.05
2022-10-31 20:48:00,,0821.9,5.01,0.00,30.5,29.4,00.0,39.2,32.3,06.7,0000.0,0011.77,0003.71,0003.05
2022-10-31 20:49:00,,0821.8,4.98,0.00,30.5,29.4,00.0,39.2,32.4,06.6,0000.0,0011.49,0003.71,0003.05
2022-10-31 20:50:00,,0821.8,5.01,0.00,30.5,29.4,00.0,39.3,32.4,06.6,0000.0,0011.94,0003.73,0003.06
2022-10-31 20:51:00,,0821.8,4.99,0.00,30.6,28.4,00.0,39.2,32.3,06.7,0000.0,0011.48,0003.72,0003.07
2022-10-31 20:52:00,,0821.8,5.02,0.00,30.5,26.8,00.0,39.2,32.1,06.7,0000.0,0010.46,0003.69,0003.05
2022-10-31 20:53:00,,0821.8,4.99,0.00,30.4,26.3,00.0,39.1,32.0,06.7,0000.0,0010.45,0003.68,0003.05
2022-10-31 20:54:00,,0821.8,5.01,0.00,30.3,26.5,00.0,39.1,31.8,06.7,0000.0,0010.44,0003.70,0003.04
2022-10-31 20:55:00,,0821.8,5.00,0.00,30.2,26.9,00.0,39.0,31.7,06.8,0000.0,0010.15,0003.69,0003.02
2022-10-31 20:56:00,,0821.8,4.99,0.00,30.1,27.2,00.0,39.0,31.8,06.8,0000.0,0010.72,0003.67,0003.02
2022-10-31 20:57:00,,0821.7,5.02,0.00,30.1,27.6,00.0,39.0,31.7,06.9,0000.0,0010.57,0003.65,0003.01
2022-10-31 20:58:00,,0821.8,5.00,0.00,30.1,27.9,00.0,39.0,31.8,06.9,0000.0,0010.44,0003.60,0003.00
2022-10-31 20:59:00,,0821.8,5.01,0.00,30.1,28.2,00.0,39.0,31.8,06.9,0000.0,0009.96,0003.60,0003.00
